Preview of NWS' New Version of Forecast
This preview is not operational and should not be used for support decisions.

Regional Weather Roundup (RWR)

Issued by National Weather Service (NWS)

                            
000
ASUS42 KTBW 231415
RWRFL 
FLORIDA REGIONAL WEATHER ROUNDUP
NATIONAL WEATHER SERVICE TAMPA BAY RUSKIN FL
1000 AM EDT SUN JUN 23 2019

NOTE: "FAIR" INDICATES FEW OR NO CLOUDS BELOW 12,000 FEET WITH NO
SIGNIFICANT WEATHER AND/OR OBSTRUCTIONS TO VISIBILITY.

FLZ001>010-012>015-112-114-115-231500-
PANHANDLE FLORIDA
  
CITY           SKY/WX    TMP DP  RH WIND       PRES   REMARKS
PENSACOLA      FAIR      87  79  76 SW13      30.07R HX 101           
PENSACOLA NAS  FAIR      86  79  79 S13       30.07R HX  99           
CRESTVIEW      FAIR      86  75  69 SW10      30.10R HX  95           
DUKE FIELD     FAIR      85  76  74 S7        30.09R                  
VALPARAISO     PTSUNNY   86  75  70 SW7       30.08R HX  95           
MARY ESTHER    MOSUNNY   86  79  79 S12       30.07R HX  99           
TRI COUNTY     PTSUNNY   83  78  85 CALM      30.11S                  
PANAMA CITY    FAIR      86  75  69 S8        30.08S HX  95           
TYNDALL AFB    FAIR      86  77  74 SW10      30.08S HX  97           
APALACHICOLA   FAIR      87  76  69 W9        30.10R HX  97           

STATION/POSITION SKY/WX   TEMP    WIND        PRES    WAVE   SWELL
                          AIR SEA DIR/SP/G            HT/PER HT/PER
                          (F)     (DEG/KT/KT) (MB)    (FT/S) (FT/S)
PANAMA CITY BEAC           83 83  250/  7/  8 1019.4R
TOWER C          NOT AVBL

$$
FLZ011-016>038-118-127-128-134-139-239-231500-
NORTH FLORIDA
  
CITY           SKY/WX    TMP DP  RH WIND       PRES   REMARKS
MARIANNA       PTSUNNY   83  78  85 W5        30.10S                  
TALLAHASSEE    FAIR      85  75  72 NW7       30.11S                  
PERRY          FAIR      85  78  80 NW8       30.12R HX  96           
LIVE OAK       SUNNY     81  73  78 CALM      30.11R                  
CROSS CITY     PTSUNNY   86  78  77 W7        30.11R HX  97           
LAKE CITY      FAIR      81  72  74 W6        30.12R                  
GAINESVILLE    FAIR      84  74  71 W8        30.13S                  
PALATKA        FAIR      84  75  74 CALM      30.11S                  
MAYPORT NAS    FAIR      82  72  71 NW3       30.10S                  
JACKSONVILLE   FAIR      83  70  64 VRB5      30.11R                  
JAX NAS        FAIR      83  67  58 SW7       30.11S                  
JAX CECIL      SUNNY     86  70  58 CALM      30.11S                  
FERNANDINA BEA FAIR      80  72  75 CALM      30.11R                  
ST AUGUSTINE   FAIR      83  74  74 VRB3      30.11S                  
PALM COAST     SUNNY     84  75  74 SW3       30.10R                  

STATION/POSITION SKY/WX   TEMP    WIND        PRES    WAVE   SWELL
                          AIR SEA DIR/SP/G            HT/PER HT/PER
                          (F)     (DEG/KT/KT) (MB)    (FT/S) (FT/S)
SHELL POINT      NOT AVBL
KEATON BEACH               83     310/  6/ 10 1019.8R
CEDAR KEY                  84     260/  5/  6 1019.2R
FERNANDINA                 81 84  290/  3/  5 1020.1
30.7N   81.3W                 82                N/A     1/10
MAYPORT                    79 83  290/  4/  5 1019.7
ST AUGUSTINE               79 78   20/  3/  3 1019.6R

$$
FLZ040-043>046-052-053-057-058-063-144-231500-
INTERIOR CENTRAL FLORIDA
  
CITY           SKY/WX    TMP DP  RH WIND       PRES   REMARKS
OCALA          FAIR      85  78  80 W8        30.11S HX  96           
LEESBURG       FAIR      84  77  79 W7        30.11R                  
SANFORD        PTSUNNY   85  77  77 NW7       30.10R HX  95           
ORLANDO EXEC   FAIR      85  76  74 W6        30.10R                  
ORLANDO INTL   FAIR      85  76  74 VRB6      30.10R                  
KISSIMMEE      FAIR      85  77  77 NW7       30.12R HX  95           
WINTER HAVEN   FAIR      87  73  62 W7        30.12R                  
LAKELAND       SUNNY     84  75  74 W5        30.11S                  
BARTOW         SUNNY     86  73  66 W7        30.10S                  
SEBRING        FAIR      85  75  71 W3        30.11R                  
OKEECHOBEE     FAIR      84  73  70 CALM      30.10S                  

$$
FLZ041-047-054-059-064-141-147-231500-
EAST CENTRAL FLORIDA
  
CITY           SKY/WX    TMP DP  RH WIND       PRES   REMARKS
ORMOND BEACH   SUNNY     84  77  79 W6        30.10R                  
DAYTONA BEACH  FAIR      85  77  77 W6        30.10R HX  95           
DELAND         FAIR      86  73  66 W6        30.10S                  
NEW SMYRNA BEA SUNNY     86  75  70 SW5       30.10R HX  95           
JFK SPACE CTR  FAIR      84  66  54 W6        30.09R                  
TITUSVILLE     MOSUNNY   88  77  70 NW7       30.10R HAZE    HX 100   
CAPE CANAVERAL FAIR      85  31  14 NW6       30.08R                  
PATRICK AFB    FAIR      85  80  84 NW5       30.10R HX  99           
MELBOURNE      FAIR      87  76  69 NW7       30.09R HX  97           
VERO BEACH     FAIR      87  75  67 NW3       30.10R HX  96           
FT PIERCE      FAIR      86  74  67 CALM      30.10S                  
STUART         SUNNY     86  73  66 CALM      30.11S                  

STATION/POSITION SKY/WX   TEMP    WIND        PRES    WAVE   SWELL
                          AIR SEA DIR/SP/G            HT/PER HT/PER
                          (F)     (DEG/KT/KT) (MB)    (FT/S) (FT/S)
TRIDENT PIER               83 76  290/  5/  7 1020.3
28.4N   80.5W                 75                N/A     1/11
27.5N   80.2W                 81                N/A     1

$$
FLZ050-056-061-142-242-148-248-149-249-151-251-155-255-
160-260-231500-
WEST CENTRAL FLORIDA
  
CITY           SKY/WX    TMP DP  RH WIND       PRES   REMARKS
CRYSTAL RIVER  PTSUNNY  N/A N/A N/A W8        30.11R                  
INVERNESS      PTSUNNY   86  82  89 NW3       30.11R HX 105           
BROOKSVILLE    FAIR      86  77  74 W5        30.11S HX  97           
CLEARWATER AIR FAIR      84  72  65 W3        30.10S                  
ST PETE CLEARW FAIR      86  74  67 CALM      30.10S                  
TAMPA INTL     FAIR      85  75  72 SW5       30.10S                  
PLANT CITY       N/A    N/A N/A N/A MISG        N/A                   
MACDILL AFB    FAIR      87  75  67 SW3       30.10S HX  96           
PETER O KNIGHT CLOUDY    86  77  74 W3        30.11S HX  97           
ST PETERSBURG  FAIR      86  76  71 SE5       30.09R HX  96           
SARASOTA       FAIR      87  75  67 NW3       30.08S HX  96           
VENICE         FAIR      88  77  70 SW5       30.11S HX 100           

STATION/POSITION SKY/WX   TEMP    WIND        PRES    WAVE   SWELL
                          AIR SEA DIR/SP/G            HT/PER HT/PER
                          (F)     (DEG/KT/KT) (MB)    (FT/S) (FT/S)
27.3N   84.2W                 85                N/A     1/ 6
CLEARWATER BEACH           85 88  250/  4/  5 1019.7R
MIDDLE TAMPA BAY           86     280/  3/  4 1019.7
VENICE                     83 86  180/  2/  3 1019.3S

$$
FLZ066-069-070-075>078-162-262-165-265-231500-
SOUTHWEST FLORIDA AND KEYS
  
CITY           SKY/WX    TMP DP  RH WIND       PRES   REMARKS
PUNTA GORDA    FAIR      87  74  64 E5        30.12R HX  95           
FT MYERS       FAIR      86  70  58 VRB3      30.09F                  
SOUTHWEST INTL FAIR      87  73  62 SE5       30.10F                  
NAPLES         FAIR      88  76  67 NE3       30.10S HX  99           
IMMOKALEE      FAIR      88  75  66 E5        30.08F HX  97           
MARATHON       FAIR      87  77  72 SE5       30.11R HX  99           
KEY WEST NAS   PTSUNNY   89  77  67 SE7       30.10S HX 101           
KEY WEST INTL  FAIR      86  77  74 SE7       30.10S HX  97           

STATION/POSITION SKY/WX   TEMP    WIND        PRES    WAVE   SWELL
                          AIR SEA DIR/SP/G            HT/PER HT/PER
                          (F)     (DEG/KT/KT) (MB)    (FT/S) (FT/S)
NAPLES                     84 88              1019.8
DRY TORTUGAS     NOT AVBL

$$
FLZ067-068-071>074-168-172>174-231500-
SOUTHEAST FLORIDA 
  
CITY           SKY/WX    TMP DP  RH WIND       PRES   REMARKS
W PALM BEACH   FAIR      87  76  69 CALM      30.10F HX  97           
FT LAUDER-EXEC FAIR      88  74  63 W7        30.10S HX  96           
FT LAUDERDALE  FAIR      87  77  72 W8        30.10R HX  99           
POMPANO BEACH  FAIR      89  73  59 W9        30.10S HX  97           
PEMBROKE PINES FAIR      89  75  63 SW8       30.12R HX  99           
OPA LOCKA      FAIR      88  76  67 W7        30.11S HX  99           
MIAMI          FAIR      88  74  63 VRB5      30.11R HX  96           
WEST KENDALL   FAIR      87  78  74 W6        30.11R HX 100           
HOMESTEAD      PTSUNNY   88  77  70 CALM      30.10R HX 100           

STATION/POSITION SKY/WX   TEMP    WIND        PRES    WAVE   SWELL
                          AIR SEA DIR/SP/G            HT/PER HT/PER
                          (F)     (DEG/KT/KT) (MB)    (FT/S) (FT/S)
VIRGINIA KEY               85 89  230/  4/  5 1019.1R
LAKE WORTH                 84 84  280/  5/  7 1020.6
FOWEY ROCKS                86 84   CALM  /  1 1019.9R
SETTLEMENT POINT           84     240/ 11/ 12 1019.4F

$$